EW7837 Weather Reports


time (UTC)temp
C
wind
direction
speed
KPH
gust
KPH
rain 1hr
cm
rain 24hr
cm
rain mn
cm
humidity
%
barometer
mb
20260507210045 21 273 0.0 0.0 0.00 0.00 0.00 70 1012.5
20260507204535 21 252 0.0 0.0 0.00 0.00 0.00 70 1012.6
20260507203041 21 265 0.0 0.0 0.00 0.00 0.00 71 1012.5
20260507201534 22 270 1.6 0.0 0.00 0.00 0.00 70 1012.5
20260507200034 22 254 1.6 0.0 0.00 0.00 0.00 70 1012.6
20260507194501 22 266 0.0 0.0 0.00 0.00 0.00 70 1012.6
20260507193001 22 262 0.0 0.0 0.00 0.00 0.00 70 1012.7
20260507191556 21 254 0.0 0.0 0.00 0.00 0.00 72 1012.7
20260507190056 21 209 1.6 0.0 0.00 0.00 0.00 70 1012.8
20260507184552 22 256 0.0 0.0 0.00 0.00 0.00 70 1013.0
20260507183051 22 264 0.0 0.0 0.00 0.00 0.00 71 1013.0
20260507181554 21 254 0.0 0.0 0.00 0.00 0.00 70 1013.1
20260507180047 22 250 0.0 0.0 0.00 0.00 0.00 67 1013.2
20260507174553 22 250 0.0 0.0 0.00 0.00 0.00 70 1013.2
20260507173103 22 250 0.0 0.0 0.00 0.00 0.00 68 1013.2
20260507171546 22 250 0.0 0.0 0.00 0.00 0.00 70 1013.3
20260507170039 22 250 0.0 0.0 0.00 0.00 0.00 70 1013.4
20260507164536 21 250 0.0 0.0 0.00 0.00 0.00 72 1013.6
20260507163027 21 250 0.0 0.0 0.00 0.00 0.00 72 1013.7
20260507161528 20 250 0.0 0.0 0.00 0.00 0.00 76 1013.7
20260507160018 18 250 0.0 0.0 0.00 0.00 0.00 79 1013.7
20260507154519 18 250 0.0 0.0 0.00 0.00 0.00 84 1013.7
20260507153015 17 250 0.0 0.0 0.00 0.00 0.00 86 1013.7
20260507151510 16 250 0.0 0.0 0.00 0.00 0.00 88 1013.7
20260507150007 16 250 0.0 0.0 0.00 0.00 0.00 87 1013.6
20260507144504 15 250 0.0 0.0 0.00 0.00 0.00 89 1013.7
20260507143002 15 250 0.0 0.0 0.00 0.00 0.00 90 1013.5
20260507141635 14 250 0.0 0.0 0.00 0.00 0.00 91 1013.3
20260507140027 13 250 0.0 0.0 0.00 0.00 0.00 92 1013.3
20260507134525 12 250 0.0 0.0 0.00 0.00 0.00 92 1013.2
20260507133056 12 250 0.0 0.0 0.00 0.00 0.00 91 1013.2
20260507131551 12 250 0.0 0.0 0.00 0.00 0.00 91 1013.2
20260507130047 12 250 0.0 0.0 0.00 0.00 0.00 91 1012.9
20260507124546 12 250 0.0 0.0 0.00 0.00 0.00 91 1012.8
20260507123045 12 250 0.0 0.0 0.00 0.00 0.00 90 1012.8
20260507121545 12 250 0.0 0.0 0.00 0.00 0.00 91 1012.7
20260507120039 12 250 0.0 0.0 0.00 0.00 0.00 91 1012.7
20260507114524 12 250 0.0 0.0 0.00 0.00 0.00 90 1012.8
20260507113037 12 250 0.0 0.0 0.00 0.00 0.00 90 1012.9
20260507111524 12 250 0.0 0.0 0.00 0.00 0.00 90 1012.8
20260507110010 12 250 0.0 0.0 0.00 0.00 0.00 90 1013.0
20260507104506 12 250 0.0 0.0 0.00 0.00 0.00 90 1013.1
20260507103002 12 250 0.0 0.0 0.00 0.00 0.00 90 1013.2
20260507101501 13 250 0.0 0.0 0.00 0.00 0.00 89 1013.2
20260507100001 13 250 0.0 0.0 0.00 0.00 0.00 90 1013.2
20260507094601 13 250 0.0 0.0 0.00 0.00 0.00 89 1013.2
20260507093057 13 250 0.0 0.0 0.00 0.00 0.00 89 1013.5
20260507091556 13 250 0.0 0.0 0.00 0.00 0.00 89 1013.6
20260507090056 13 250 0.0 0.0 0.00 0.00 0.00 89 1013.7
20260507084601 13 250 0.0 0.0 0.00 0.00 0.00 88 1013.9
20260507083050 13 250 0.0 0.0 0.00 0.00 0.00 88 1014.2
20260507081550 13 250 0.0 0.0 0.00 0.00 0.00 88 1014.2
20260507080047 14 250 0.0 0.0 0.00 0.00 0.00 88 1014.2
20260507074549 14 250 0.0 0.0 0.00 0.00 0.00 88 1014.2
20260507073054 14 250 0.0 0.0 0.00 0.00 0.00 88 1014.1
20260507071541 14 250 0.0 0.0 0.00 0.00 0.00 87 1014.2
20260507070043 15 250 0.0 0.0 0.00 0.00 0.00 86 1014.3
20260507064546 15 250 0.0 0.0 0.00 0.00 0.00 86 1014.3
20260507063027 15 250 0.0 0.0 0.00 0.00 0.00 86 1014.3
20260507061509 15 250 0.0 0.0 0.00 0.00 0.00 85 1014.3
20260507060036 15 250 0.0 0.0 0.00 0.00 0.00 85 1014.3
20260507054536 15 250 0.0 0.0 0.00 0.00 0.00 84 1014.4
20260507053035 15 250 0.0 0.0 0.00 0.00 0.00 83 1014.4
20260507051528 16 250 0.0 0.0 0.00 0.00 0.00 83 1014.3
20260507050024 16 250 0.0 0.0 0.00 0.00 0.00 82 1014.3
20260507044522 17 250 0.0 0.0 0.00 0.00 0.00 80 1014.3
20260507043016 17 250 0.0 0.0 0.00 0.00 0.00 79 1014.2
20260507041515 18 250 0.0 0.0 0.00 0.00 0.00 79 1014.2
20260507040013 18 250 0.0 0.0 0.00 0.00 0.00 77 1014.0
20260507034512 18 250 0.0 0.0 0.00 0.00 0.00 77 1013.7
20260507033008 18 250 0.0 0.0 0.00 0.00 0.00 78 1013.7
20260507031506 18 250 0.0 0.0 0.00 0.00 0.00 78 1013.5
20260507030004 18 250 0.0 0.0 0.00 0.00 0.00 78 1013.3
20260507024502 19 250 0.0 0.0 0.00 0.00 0.00 76 1013.2
20260507023034 19 250 0.0 0.0 0.00 0.00 0.00 75 1013.2
20260507021534 20 250 0.0 0.0 0.00 0.00 0.00 73 1013.2
20260507020034 20 250 0.0 0.0 0.00 0.00 0.00 71 1013.0
20260507014533 21 250 0.0 0.0 0.00 0.00 0.00 69 1013.0
20260507013025 21 252 0.0 0.0 0.00 0.00 0.00 68 1013.1
20260507011526 21 252 0.0 0.0 0.00 0.00 0.00 67 1013.0
20260507010031 21 263 0.0 0.0 0.00 0.00 0.00 65 1012.9
20260507004522 22 279 1.6 0.0 0.00 0.00 0.00 64 1012.8
20260507003021 22 248 0.0 0.0 0.00 0.00 0.00 64 1012.8
20260507001523 22 268 0.0 0.0 0.00 0.00 0.00 65 1012.7
20260507000022 22 277 0.0 0.0 0.00 0.00 0.00 64 1012.7
20260506234535 22 275 1.6 0.0 0.00 0.00 0.00 65 1012.7
20260506233017 22 271 1.6 0.0 0.00 0.00 0.00 64 1012.7
20260506231517 22 268 1.6 0.0 0.00 0.00 0.00 63 1012.7
20260506230017 22 266 0.0 0.0 0.00 0.00 0.00 63 1012.7
20260506224600 22 256 1.6 0.0 0.00 0.00 0.00 63 1012.9
20260506223046 22 274 0.0 0.0 0.00 0.00 0.00 65 1013.1
20260506221512 22 266 1.6 0.0 0.00 0.00 0.00 65 1013.2
20260506220028 21 276 1.6 0.0 0.00 0.00 0.00 66 1013.3
20260506214510 21 261 1.6 0.0 0.00 0.00 0.00 66 1013.5
20260506213010 21 286 1.6 0.0 0.00 0.00 0.00 66 1013.6
20260506211517 22 261 1.6 0.0 0.00 0.00 0.00 66 1013.7